Location: Sternwarte_Laufen
(47.9344°N, 12.9346°E)
Time: 12:45:00
(UTC+01:00)

ISS - Visible Passes

Search period start: 23 February 2017 00:00
Search period end: 05 March 2017 00:00
Orbit: 399 x 408 km, 51.6° (Epoch: 23 February)

Date Brightness Start Highest point End Pass type
(mag) Time Alt. Az. Time Alt. Az. Time Alt. Az.
01 Mar -0.2 05:57:04 10° SSE 05:58:25 12° SE 05:59:47 10° ESE visible
03 Mar -1.1 05:46:41 10° SSW 05:49:22 24° SE 05:52:05 10° E visible
04 Mar -0.5 04:55:08 10° S 04:56:59 14° SE 04:58:50 10° ESE visible
